Weather in Heiligenblut am Grossglockner

Austria     47°02′23″N   12°50′35″E
temp.,
°C
wind,
m/s
gust,
m/s
humid.,
%
clouds,
%
prec.,
mm/h
press.,
hPa
HPBL,
m
18 april, sun
sun1823:00−9n339569 0.2 102129
02:00−11n339491 0.3 102227
05:00−11n449295 0.0 102233
08:00−8n349299 0.1 1020230
11:00−4nne3282100 0.1 1017726
14:00−3ne2283100 0.3 1016725
17:00−2nne3379100 0.4 1015738
20:00−6n3494100 0.6 101847
19 april, mon
mon1923:00−7n3394100 0.2 102049
02:00−8n3494100 0.3 102147
05:00−8n3494100 0.1 102051
08:00−6n3490100 0.2 1019281
11:00−3nne3379100 0.1 1017917
14:00−2n4480100 0.6 1015933
17:00−2n4480100 0.4 1015847
20:00−5n4594100 0.6 101899
20 april, tue
tue2023:00−7nnw349595 0.1 101971
02:00−7nnw449496 0.1 101969
05:00−7nnw3494100 0.0 101863
08:00−4nnw338899 0.0 1017186
11:00−1n338299 0.1 1015735
14:000n4383100 0.7 1014805
17:00−1n448283 0.7 1014746
20:00−3n338595 0.9 101688
21 april, wed
wed2123:00−3n228047 0.0 101729
02:00−7nnw22885 0.0 102015
05:00−8nnw21812 0.0 102014
08:00−3nw11624 0.0 101884
11:000nw115455 0.0 1016927
14:00+2nnw126148 0.1 10151191
17:00+2nw116640 0.9 1014824
20:00−2w0190100 2.3 101722
22 april, thu
thu2223:00−2ssw119284 0.3 101934
02:00−4wsw119679 0.3 102025
05:00−4wnw229574 0.0 102042
08:00−1nw117951 0.0 1018126
11:00+1w1162100 0.6 1016749
14:00+2nnw2372100 3.0 1016765
17:00+1n458799 1.8 1017613
20:00−4nnw459777 2.3 1023196